OPS 4682 DEB, 38373

Orbit data source: Space-Track

OPS 4682 DEB, 38373 is space debris in LEO originally from a launch on Sat, 03 Apr 1965 UTC launched from the Air Force Western Test Range (AFWTR). Debris objects in space refer to the collection of defunct objects orbiting the Earth. Examples of debris include non-operational satellites, rocket bodies, and fragments generated from explosions, collisions, or faulty payload assembly.

Loading next visibility...
Identifier
38373, 1965-027CA
Orbit
LEO
Country
Flag of USUS
Related business
Manufacturer
Unknown
Mission
Spacecraft
Bus & Motor
Unknown
Mass
Unknown
Launch date (UTC)
1965-04-03 (61 years ago)
Launch vehicle
Unknown
Launch site
Air Force Western Test Range (AFWTR)
Object type
Payload
Rocket body
Debris
Shape & HBR
Unknown shape, 0.1 m
Radar Cross Section
Medium (>0.1 m² and <1 m²)

Expand to show TLE details & history
Last TLE update: 1 day ago

TLE from 1 day ago
0 OPS 4682 DEB
1 38373U 65027CA  26207.22005151 -.00000107  00000-0 -37308-3 0  9991
2 38373  90.2736  31.4846 0033069  81.6556 278.8314 13.01084453622115
Epoch: 2026-07-26T05:16Z
TLE epoch observation values (Epoch: 2026-07-26T05:16:52.450Z)
Latitude
-0.00001°
Longitude
8.34495°
Altitude
1,256.93 km
Speed
7.229 km/s
True Right ascension
02h 05m 56s
True Declination
0° 00' 00"
Sunlit
Object was in daylight at epoch
Visualization orbit readout
Latitude
Unknown
Longitude
Unknown
Altitude
Unknown
Speed
Unknown
Apparent Right ascension
Unknown
Apparent Declination
Unknown
Sunlit
N/A
Visualization observer readout
Local Sidereal Time
19:41:05
Azimuth
Unknown
Elevation
Unknown
Doppler factor
Unknown
Orbital elements
Apogee altitude
1,280.208 km
Perigee altitude
1,229.724 km
Semi-major axis
7,633.103 km
Eccentricity
0.00331
Inclination
90.2736°
RAAN
31.4846°
Arg. of periapsis
81.6556°
True anomaly
278.45671°
Mean anomaly
278.8314°
Eccentric anomaly
278.64408°
Mean motion
3.25455 °/min
Orbital period
110.61 mins
BSTAR
-0.00037308
Loading maneuver chart data...
Computing Atmospheric mass density...
Loading historical data...
Loading historical data...
Loading historical data...
Loading historical data...
Loading historical data...
Loading historical data...
Loading historical data...

Documentation

Showing up to 5 results
|